User: anonymous   Login
Location: Newark
(51.1667°N, 4.4833°E)
Time: 18:15:55
(UTC+00:00)
Language:

JY1SAT - Orbit

View from above orbital plane
View from above orbital plane
View from above satellite
View from above satellite

Ground track
Ground track

The orbit data is extracted from the following two-line orbital elements,

1 43803U 18099AX  19339.47297705  .00000537  00000-0  53802-4 0  9998
2 43803  97.7268  49.1753 0016574 120.4260 239.8601 14.95372143 54799
Epoch (UTC): 05 December 2019 11:21:05
Eccentricity: 0.0016574
inclination: 97.7268°
perigee height: 569 km
apogee height: 593 km
right ascension of ascending node: 49.1753°
argument of perigee: 120.4260°
revolutions per day: 14.95372143
mean anomaly at epoch: 239.8601°
orbit number at epoch: 5479

The dashed part of the orbit path shows where the satellite is in the earth's shadow,  

DLR